Showing default

ICEYE-X51, 63257

Orbit data source: Space-Track

ICEYE-X51, 63257 is a payload satellite owned by ICEYE US (US) in SSO that was launched on Sat, 15 Mar 2025 UTC via an FALCON 9 launch vehicle from the Air Force Western Test Range (AFWTR). Payload-class satellites include a variety of spacecraft equipped with specific instruments for various scientific and technological missions. These include communications satellites like Starlink; space stations such as the ISS; scientific satellites like the Hubble; Earth observation satellites from companies like Planet Labs, Umbra, and HawkEye 360; GPS; miniature CubeSats for education and research; and military/defense satellites.

Loading next visibility...
Identifier
63257, 2025-052AZ
Orbit
SSO
Country
Flag of USUS
Related business
Manufacturer
ICEYE
Mission
Operational Commercial Radar Imaging
Bus & Motor
ICEYE, Unknown motor
Mass
80 kg wet, 80 kg dry
Launch date (UTC)
2025-03-15 (2 years ago)
Launch vehicle
FALCON 9
Launch site
Air Force Western Test Range (AFWTR)
Object type
Payload
Rocket body
Debris
Shape & HBR
Box + 1 Pan, 0.8 m
Radar Cross Section
0.776 m², Medium (>0.1 m² and < 1m²)

Expand to show TLE details & history
Last TLE update: 8 hours ago

TLE from 8 hours ago
0 ICEYE-X51
1 63257U 25052AZ  26265.59488890  .00002975  00000-0  23868-3 0  9992
2 63257  97.7719 160.5939 0001888  59.8809 300.2602 15.00864284 83419
Epoch: 2026-09-22T14:16Z
TLE epoch observation values (Epoch: 2026-09-22T14:16:38.400Z)
Latitude
-0.00002°
Longitude
-55.02421°
Altitude
566.623 km
Speed
7.578 km/s
True Right ascension
10h 42m 22s
True Declination
0° 00' 00"
Sunlit
Object was in daylight at epoch
Visualization orbit readout
Latitude
Unknown
Longitude
Unknown
Altitude
Unknown
Speed
Unknown
Apparent Right ascension
Unknown
Apparent Declination
Unknown
Sunlit
N/A
Visualization observer readout
Local Sidereal Time
15:36:56
Azimuth
Unknown
Elevation
Unknown
Doppler factor
Unknown
Orbital elements
Apogee altitude
562.547 km
Perigee altitude
559.927 km
Semi-major axis
6,939.374 km
Eccentricity
0.00019
Inclination
97.7719°
RAAN
160.5939°
Arg. of periapsis
59.8809°
True anomaly
300.24151°
Mean anomaly
300.2602°
Eccentric anomaly
300.25086°
Mean motion
3.75459 °/min
Orbital period
95.88 mins
BSTAR
0.00023868
Loading maneuver chart data...
Computing Atmospheric mass density...
Loading historical data...
Loading historical data...
Loading historical data...
Loading historical data...
Loading historical data...
Loading historical data...
Loading historical data...

Documentation

Showing up to 5 results
|